Stündliche Wetter Cel

Heute, 23 Januar, Samstag

Zeit Temperatur Niederschläge Wind Luftdruck Luftfeuchtigkeit
00:00 0°C° 0 mm 4 m/S 738 mmHg 92%
01:00 0°C° 0 mm 4 m/S 738 mmHg 92%
02:00 0°C° 0 mm 4 m/S 738 mmHg 91%
03:00 -1°C° 0 mm 4 m/S 738 mmHg 92%
04:00 0°C° 0 mm 3 m/S 739 mmHg 92%
05:00 0°C° 0 mm 3 m/S 739 mmHg 93%
06:00 0°C° 0 mm 3 m/S 739 mmHg 95%
07:00 0°C° 0 mm 3 m/S 739 mmHg 96%
08:00 +1°C° 0 mm 3 m/S 739 mmHg 98%
09:00 +1°C° 0 mm 3 m/S 739 mmHg 98%
10:00 +1°C° 0 mm 3 m/S 739 mmHg 98%
11:00 +1°C° 0 mm 3 m/S 740 mmHg 99%
12:00 +1°C° 0 mm 3 m/S 740 mmHg 99%
13:00 +1°C° 0 mm 3 m/S 740 mmHg 99%
14:00 +1°C° 0 mm 3 m/S 740 mmHg 99%
15:00 +1°C° 0 mm 3 m/S 739 mmHg 99%
16:00 +1°C° 0 mm 3 m/S 739 mmHg 98%
17:00 +1°C° 0 mm 3 m/S 739 mmHg 98%
18:00 0°C° 0 mm 4 m/S 739 mmHg 97%
19:00 -1°C° 0 mm 4 m/S 739 mmHg 95%
20:00 -1°C° 0 mm 4 m/S 739 mmHg 94%
21:00 -1°C° 0 mm 4 m/S 739 mmHg 94%
22:00 -1°C° 0 mm 4 m/S 739 mmHg 93%
23:00 -2°C° 0 mm 4 m/S 739 mmHg 93%

Morgen, 24 Januar, Sonntag

Zeit Temperatur Niederschläge Wind Luftdruck Luftfeuchtigkeit
00:00 -2°C° 0 mm 4 m/S 738 mmHg 94%
01:00 -2°C° 0 mm 4 m/S 738 mmHg 94%
02:00 -2°C° 0 mm 4 m/S 738 mmHg 95%
03:00 -2°C° 0 mm 4 m/S 738 mmHg 95%
04:00 -2°C° 0 mm 4 m/S 737 mmHg 96%
05:00 -2°C° 0 mm 5 m/S 737 mmHg 97%
06:00 -1°C° 0 mm 5 m/S 737 mmHg 97%
07:00 -1°C° 0 mm 5 m/S 737 mmHg 97%
08:00 0°C° 0 mm 4 m/S 737 mmHg 97%
09:00 0°C° 0 mm 4 m/S 736 mmHg 97%
10:00 0°C° 0 mm 4 m/S 736 mmHg 98%
11:00 +2°C° 0 mm 3 m/S 735 mmHg 98%
12:00 +1°C° 0.4 mm 4 m/S 735 mmHg 98%
13:00 +1°C° 0.4 mm 4 m/S 734 mmHg 98%
14:00 +1°C° 0.4 mm 4 m/S 734 mmHg 98%
15:00 +1°C° 0.8 mm 4 m/S 733 mmHg 98%
16:00 +1°C° 0.8 mm 4 m/S 733 mmHg 98%
17:00 +1°C° 0.8 mm 4 m/S 732 mmHg 98%
18:00 +1°C° 0.4 mm 5 m/S 732 mmHg 98%
19:00 +1°C° 0.4 mm 5 m/S 731 mmHg 97%
20:00 +1°C° 0.4 mm 5 m/S 731 mmHg 97%
21:00 +1°C° 0.4 mm 4 m/S 731 mmHg 97%
22:00 +1°C° 0.4 mm 4 m/S 731 mmHg 98%
23:00 +1°C° 0.4 mm 4 m/S 730 mmHg 98%

übermorgen, 25 Januar, Montag

Zeit Temperatur Niederschläge Wind Luftdruck Luftfeuchtigkeit
00:00 +1°C° 0.6 mm 5 m/S 731 mmHg 97%
01:00 +1°C° 0.6 mm 6 m/S 732 mmHg 97%
02:00 -1°C° 0.6 mm 7 m/S 732 mmHg 96%
03:00 -1°C° 0.4 mm 6 m/S 733 mmHg 96%
04:00 0°C° 0.4 mm 5 m/S 734 mmHg 97%
05:00 -1°C° 0.4 mm 5 m/S 735 mmHg 97%
06:00 -1°C° 0 mm 4 m/S 735 mmHg 96%
07:00 0°C° 0 mm 3 m/S 736 mmHg 95%
08:00 0°C° 0 mm 3 m/S 737 mmHg 94%
09:00 +1°C° 0 mm 2 m/S 738 mmHg 94%
10:00 +1°C° 0 mm 2 m/S 738 mmHg 94%
11:00 +1°C° 0 mm 2 m/S 738 mmHg 95%
12:00 +1°C° 0 mm 2 m/S 738 mmHg 94%
13:00 +2°C° 0 mm 1 m/S 738 mmHg 94%
14:00 +2°C° 0 mm 1 m/S 738 mmHg 94%
15:00 +2°C° 0 mm 1 m/S 738 mmHg 94%
16:00 -1°C° 0 mm 2 m/S 738 mmHg 94%
17:00 -1°C° 0 mm 2 m/S 738 mmHg 95%
18:00 -1°C° 0 mm 2 m/S 738 mmHg 95%
19:00 -1°C° 0 mm 3 m/S 737 mmHg 95%
20:00 0°C° 0 mm 3 m/S 737 mmHg 95%
21:00 -1°C° 0.3 mm 4 m/S 736 mmHg 96%
22:00 -1°C° 0.3 mm 5 m/S 735 mmHg 96%
23:00 0°C° 0.3 mm 5 m/S 735 mmHg 97%

26 Januar, Dienstag

Zeit Temperatur Niederschläge Wind Luftdruck Luftfeuchtigkeit
00:00 0°C° 1.6 mm 5 m/S 734 mmHg 97%
01:00 0°C° 1.6 mm 5 m/S 733 mmHg 97%
02:00 +1°C° 1.6 mm 5 m/S 732 mmHg 97%
03:00 +1°C° 1 mm 5 m/S 731 mmHg 96%
04:00 +1°C° 1 mm 5 m/S 730 mmHg 96%
05:00 +1°C° 1 mm 5 m/S 730 mmHg 96%
06:00 +1°C° 0.8 mm 5 m/S 729 mmHg 96%
07:00 +1°C° 0.8 mm 5 m/S 729 mmHg 96%
08:00 +1°C° 0.8 mm 4 m/S 729 mmHg 96%
09:00 +1°C° 0.2 mm 4 m/S 729 mmHg 96%
10:00 +1°C° 0.2 mm 4 m/S 729 mmHg 96%
11:00 +1°C° 0.2 mm 4 m/S 729 mmHg 95%
12:00 +2°C° 0.1 mm 3 m/S 729 mmHg 93%
13:00 +1°C° 0.1 mm 3 m/S 729 mmHg 91%
14:00 +1°C° 0.1 mm 3 m/S 729 mmHg 89%
15:00 +1°C° 0 mm 2 m/S 729 mmHg 92%
16:00 +1°C° 0 mm 2 m/S 729 mmHg 95%
17:00 -1°C° 0 mm 2 m/S 729 mmHg 97%
18:00 -1°C° 0 mm 2 m/S 729 mmHg 97%
19:00 +1°C° 0 mm 1 m/S 729 mmHg 97%
20:00 +1°C° 0 mm 1 m/S 729 mmHg 97%
21:00 +1°C° 0.3 mm 1 m/S 730 mmHg 98%
22:00 +1°C° 0.3 mm 1 m/S 730 mmHg 98%
23:00 +1°C° 0.3 mm 1 m/S 730 mmHg 98%

27 Januar, Mittwoch

Zeit Temperatur Niederschläge Wind Luftdruck Luftfeuchtigkeit
00:00 -1°C° 0.4 mm 2 m/S 730 mmHg 98%
01:00 -1°C° 0.4 mm 2 m/S 730 mmHg 98%
02:00 -1°C° 0.4 mm 2 m/S 731 mmHg 98%
03:00 -1°C° 0.1 mm 2 m/S 731 mmHg 97%
04:00 -2°C° 0.1 mm 3 m/S 731 mmHg 96%
05:00 -2°C° 0.1 mm 3 m/S 732 mmHg 96%
06:00 -3°C° 0.1 mm 4 m/S 732 mmHg 95%
07:00 -3°C° 0.1 mm 4 m/S 732 mmHg 94%
08:00 -4°C° 0.1 mm 5 m/S 733 mmHg 93%
09:00 -4°C° 0.1 mm 5 m/S 733 mmHg 92%
10:00 -4°C° 0.1 mm 5 m/S 734 mmHg 92%
11:00 -4°C° 0.1 mm 5 m/S 735 mmHg 91%
12:00 -4°C° 0.2 mm 6 m/S 735 mmHg 92%
13:00 -4°C° 0.2 mm 6 m/S 735 mmHg 92%
14:00 -4°C° 0.2 mm 6 m/S 736 mmHg 92%
15:00 -4°C° 0.2 mm 6 m/S 736 mmHg 92%
16:00 -4°C° 0.2 mm 5 m/S 737 mmHg 93%
17:00 -4°C° 0.2 mm 5 m/S 738 mmHg 93%
18:00 -4°C° 0.1 mm 5 m/S 738 mmHg 93%
19:00 -4°C° 0.1 mm 5 m/S 739 mmHg 92%
20:00 -4°C° 0.1 mm 5 m/S 739 mmHg 92%
21:00 -4°C° 0 mm 5 m/S 739 mmHg 91%
22:00 -4°C° 0 mm 5 m/S 740 mmHg 90%
23:00 -4°C° 0 mm 5 m/S 740 mmHg 89%

28 Januar, Donnerstag

Zeit Temperatur Niederschläge Wind Luftdruck Luftfeuchtigkeit
00:00 -4°C° 0 mm 5 m/S 740 mmHg 89%
01:00 -4°C° 0 mm 5 m/S 741 mmHg 88%
02:00 -5°C° 0 mm 5 m/S 741 mmHg 88%
03:00 -5°C° 0 mm 5 m/S 741 mmHg 88%
04:00 -4°C° 0 mm 4 m/S 741 mmHg 87%
05:00 -4°C° 0 mm 4 m/S 741 mmHg 87%
06:00 -4°C° 0 mm 4 m/S 741 mmHg 87%
07:00 -4°C° 0 mm 4 m/S 741 mmHg 88%
08:00 -4°C° 0 mm 3 m/S 742 mmHg 89%
09:00 -4°C° 0 mm 4 m/S 742 mmHg 87%
10:00 -4°C° 0 mm 4 m/S 742 mmHg 86%
11:00 -3°C° 0 mm 4 m/S 742 mmHg 84%
12:00 -3°C° 0 mm 4 m/S 742 mmHg 84%
13:00 -3°C° 0 mm 4 m/S 742 mmHg 83%
14:00 -3°C° 0 mm 4 m/S 742 mmHg 82%
15:00 -2°C° 0 mm 3 m/S 742 mmHg 84%
16:00 -2°C° 0 mm 3 m/S 742 mmHg 85%
17:00 -3°C° 0 mm 2 m/S 742 mmHg 86%
18:00 -3°C° 0.1 mm 2 m/S 742 mmHg 89%
19:00 -3°C° 0.1 mm 2 m/S 742 mmHg 91%
20:00 -3°C° 0.1 mm 2 m/S 742 mmHg 93%
Mehr zeigen

Wir brauchen deine Erlaubnis

Meteoprog und unser Service Anbieter werden persönliche Daten aufbewahren, so wie Cookies, Geräte Bezeichnung oder ähnliche Technologien von deinem Gerät und Prozess, so wie Persönliche Daten Inhalte und Werbungen, genauso wie social Media und den Verkehr zu analysieren.

  • Aufbewahrung und/oder Zugang zu deiner Geräte Informationen.

    Cookies, Geräte Bezeichnung oder andere Informationen, können aufbewahrt oder Zugang zu deinem Gerät erhalten, für den Grund, der oben angegeben wird.

  • Personalisierte Werbung und Inhalte, Messungen, Einblick in das Publikum und Produkt Entwicklung.

    Werbungen und Inhalte können personalisiert werden, basierend auf ein Profil. Mehr Daten können besser personalisierte Werbungen und Inhalte hinzufügen. Werbung und Inhalte können gezeigt und gemessen werden. Einblicke über das Publikum, welche die Werbung gesehen haben und den Inhalt, können abgeleitet werden. So wie Daten können genutzt werden, um es zu verbessern oder die Benutzer Erfahrung zu verbessern das System und die Software.

Wenn du “Ich stimme zu” klickst, erlaubst du uns, die Cookies zu benutzen die Geräte Bezeichnung, den Web oder ähnliche Technologien zu benutzen. Deine Settings, können in deinem Gerät bei deinem Browser geändert werden.

Für den bestimmten Zweck, berechtigten Interessen beruhen darauf, mehr als auf den Inhalt. Du kannst mehr darüber in unseren Privaten und Cookie Politik lesen.